Time,TemperatureF,DewpointF,PressureIn,WindDirection,WindDirectionDegrees,WindSpeedMPH,WindSpeedGustMPH,Humidity,HourlyPrecipIn,Conditions,Clouds,dailyrainin,SoftwareType,DateUTC
2013-09-17 00:02:00,79.2,75.7,29.94,NE,55,2.0,2.0,89,0.00,,,0.00,Wunderground v.1.15,2013-09-17 04:02:00,
2013-09-17 00:04:00,79.2,75.7,29.94,ENE,69,1.0,2.0,89,0.00,,,0.00,Wunderground v.1.15,2013-09-17 04:04:00,
2013-09-17 00:06:00,79.2,75.7,29.94,East,84,1.0,2.0,89,0.00,,,0.00,Wunderground v.1.15,2013-09-17 04:06:00,
2013-09-17 00:08:00,79.2,75.7,29.94,ENE,63,1.0,2.0,89,0.00,,,0.00,Wunderground v.1.15,2013-09-17 04:08:00,
2013-09-17 00:14:00,79.2,75.7,29.94,ENE,68,1.0,2.0,89,0.00,,,0.00,Wunderground v.1.15,2013-09-17 04:14:00,
2013-09-17 00:16:00,79.2,75.7,29.94,East,80,1.0,2.0,89,0.00,,,0.00,Wunderground v.1.15,2013-09-17 04:16:00,
2013-09-17 00:20:00,79.2,75.7,29.94,NE,40,1.0,2.0,89,0.00,,,0.00,Wunderground v.1.15,2013-09-17 04:20:00,
2013-09-17 00:26:00,79.1,75.6,29.93,ENE,63,1.0,2.0,89,0.00,,,0.00,Wunderground v.1.15,2013-09-17 04:26:00,
2013-09-17 00:32:00,79.2,75.7,29.93,SE,136,2.0,2.0,89,0.00,,,0.00,Wunderground v.1.15,2013-09-17 04:32:00,
2013-09-17 00:38:00,79.2,75.3,29.94,ESE,123,2.0,2.0,88,0.00,,,0.00,Wunderground v.1.15,2013-09-17 04:38:00,
2013-09-17 00:44:00,78.8,74.9,29.94,NE,34,2.0,3.0,88,0.00,,,0.00,Wunderground v.1.15,2013-09-17 04:44:00,
2013-09-17 00:50:00,78.2,74.7,29.93,NE,45,1.0,2.0,89,0.00,,,0.00,Wunderground v.1.15,2013-09-17 04:50:00,
2013-09-17 00:56:00,77.9,74.7,29.93,East,90,1.0,2.0,90,0.00,,,0.00,Wunderground v.1.15,2013-09-17 04:56:00,
2013-09-17 01:02:00,77.7,74.9,29.93,East,90,0.0,2.0,91,0.00,,,0.00,Wunderground v.1.15,2013-09-17 05:02:00,
2013-09-17 01:08:00,77.6,75.1,29.92,East,91,0.0,2.0,92,0.00,,,0.00,Wunderground v.1.15,2013-09-17 05:08:00,
2013-09-17 01:14:00,77.4,75.2,29.92,East,90,0.0,2.0,93,0.00,,,0.01,Wunderground v.1.15,2013-09-17 05:14:00,
2013-09-17 01:20:00,77.5,75.3,29.92,East,101,0.0,2.0,93,0.00,,,0.01,Wunderground v.1.15,2013-09-17 05:20:00,
2013-09-17 01:26:00,77.6,75.4,29.91,ESE,112,0.0,2.0,93,0.00,,,0.01,Wunderground v.1.15,2013-09-17 05:26:00,
2013-09-17 01:32:00,77.9,75.7,29.91,ESE,116,1.0,2.0,93,0.00,,,0.01,Wunderground v.1.15,2013-09-17 05:32:00,
2013-09-17 01:38:00,78.2,75.7,29.91,East,94,1.0,3.0,92,0.00,,,0.01,Wunderground v.1.15,2013-09-17 05:38:00,
2013-09-17 01:44:00,78.4,75.9,29.91,ESE,122,1.0,2.0,92,0.00,,,0.01,Wunderground v.1.15,2013-09-17 05:44:00,
2013-09-17 01:50:00,78.5,75.7,29.91,East,90,1.0,2.0,91,0.00,,,0.01,Wunderground v.1.15,2013-09-17 05:50:00,
2013-09-17 01:56:00,78.5,75.7,29.90,ESE,104,1.0,3.0,91,0.00,,,0.01,Wunderground v.1.15,2013-09-17 05:56:00,
2013-09-17 02:02:00,78.5,75.7,29.90,ENE,63,1.0,2.0,91,0.00,,,0.01,Wunderground v.1.15,2013-09-17 06:02:00,
2013-09-17 02:08:00,78.6,75.8,29.90,ENE,73,1.0,3.0,91,0.00,,,0.01,Wunderground v.1.15,2013-09-17 06:08:00,
2013-09-17 02:14:00,78.7,75.5,29.90,NE,44,2.0,3.0,90,0.00,,,0.01,Wunderground v.1.15,2013-09-17 06:14:00,
2013-09-17 02:20:00,78.6,75.4,29.90,ESE,112,2.0,2.0,90,0.00,,,0.01,Wunderground v.1.15,2013-09-17 06:20:00,
2013-09-17 02:26:00,78.6,75.8,29.90,ENE,68,1.0,2.0,91,0.00,,,0.01,Wunderground v.1.15,2013-09-17 06:26:00,
2013-09-17 02:32:00,78.6,75.8,29.90,ESE,118,1.0,2.0,91,0.00,,,0.01,Wunderground v.1.15,2013-09-17 06:32:00,
2013-09-17 02:38:00,78.7,75.5,29.90,ESE,105,1.0,2.0,90,0.00,,,0.01,Wunderground v.1.15,2013-09-17 06:38:00,
2013-09-17 02:44:00,78.7,75.5,29.90,ESE,110,1.0,2.0,90,0.00,,,0.01,Wunderground v.1.15,2013-09-17 06:44:00,
2013-09-17 02:50:00,78.7,75.5,29.90,ENE,60,1.0,2.0,90,0.00,,,0.01,Wunderground v.1.15,2013-09-17 06:50:00,
2013-09-17 02:56:00,78.8,75.6,29.90,ENE,62,1.0,2.0,90,0.00,,,0.01,Wunderground v.1.15,2013-09-17 06:56:00,
2013-09-17 03:02:00,78.8,75.6,29.90,ESE,120,1.0,2.0,90,0.00,,,0.01,Wunderground v.1.15,2013-09-17 07:02:00,
2013-09-17 03:08:00,78.8,75.6,29.90,SE,136,1.0,2.0,90,0.00,,,0.01,Wunderground v.1.15,2013-09-17 07:08:00,
2013-09-17 03:14:00,78.8,75.6,29.89,East,96,1.0,2.0,90,0.00,,,0.01,Wunderground v.1.15,2013-09-17 07:14:00,
2013-09-17 03:20:00,78.7,75.5,29.89,East,96,0.0,2.0,90,0.00,,,0.01,Wunderground v.1.15,2013-09-17 07:20:00,
2013-09-17 03:26:00,78.5,75.7,29.88,East,96,0.0,2.0,91,0.00,,,0.01,Wunderground v.1.15,2013-09-17 07:26:00,
2013-09-17 03:32:00,78.5,75.3,29.89,SE,143,0.0,3.0,90,0.00,,,0.01,Wunderground v.1.15,2013-09-17 07:32:00,
2013-09-17 03:38:00,78.7,75.2,29.89,SE,126,2.0,4.0,89,0.00,,,0.01,Wunderground v.1.15,2013-09-17 07:38:00,
2013-09-17 03:44:00,78.8,74.9,29.88,SE,141,3.0,3.0,88,0.00,,,0.01,Wunderground v.1.15,2013-09-17 07:44:00,
2013-09-17 03:50:00,78.8,74.9,29.89,ENE,73,2.0,2.0,88,0.00,,,0.01,Wunderground v.1.15,2013-09-17 07:50:00,
2013-09-17 03:56:00,78.7,74.5,29.89,East,82,1.0,2.0,87,0.00,,,0.01,Wunderground v.1.15,2013-09-17 07:56:00,
2013-09-17 04:02:00,78.6,74.4,29.89,ENE,72,0.0,1.0,87,0.00,,,0.01,Wunderground v.1.15,2013-09-17 08:02:00,
2013-09-17 04:08:00,78.5,74.3,29.90,ESE,108,0.0,1.0,87,0.00,,,0.01,Wunderground v.1.15,2013-09-17 08:08:00,
2013-09-17 04:14:00,78.5,74.3,29.89,SE,129,1.0,1.0,87,0.00,,,0.01,Wunderground v.1.15,2013-09-17 08:14:00,
2013-09-17 04:20:00,78.3,74.1,29.89,East,91,0.0,0.0,87,0.00,,,0.01,Wunderground v.1.15,2013-09-17 08:20:00,
2013-09-17 04:26:00,78.2,74.0,29.89,East,90,0.0,0.0,87,0.00,,,0.01,Wunderground v.1.15,2013-09-17 08:26:00,
2013-09-17 04:32:00,78.0,74.2,29.89,SE,124,0.0,0.0,88,0.00,,,0.01,Wunderground v.1.15,2013-09-17 08:32:00,
2013-09-17 04:38:00,77.6,74.1,29.89,SE,124,0.0,0.0,89,0.00,,,0.01,Wunderground v.1.15,2013-09-17 08:38:00,
2013-09-17 04:44:00,77.3,74.1,29.88,SE,124,0.0,0.0,90,0.00,,,0.01,Wunderground v.1.15,2013-09-17 08:44:00,
2013-09-17 04:50:00,77.0,73.8,29.88,SE,124,0.0,0.0,90,0.00,,,0.01,Wunderground v.1.15,2013-09-17 08:50:00,
2013-09-17 04:56:00,76.8,74.0,29.88,SE,124,0.0,0.0,91,0.00,,,0.01,Wunderground v.1.15,2013-09-17 08:56:00,
2013-09-17 05:02:00,76.6,74.1,29.88,SE,124,0.0,6.0,92,0.00,,,0.01,Wunderground v.1.15,2013-09-17 09:02:00,
2013-09-17 05:08:00,76.3,73.8,29.88,SE,124,0.0,6.0,92,0.00,,,0.01,Wunderground v.1.15,2013-09-17 09:08:00,
2013-09-17 05:14:00,76.2,74.0,29.88,SE,124,0.0,6.0,93,0.00,,,0.01,Wunderground v.1.15,2013-09-17 09:14:00,
2013-09-17 05:20:00,76.1,73.9,29.88,SE,124,0.0,6.0,93,0.00,,,0.01,Wunderground v.1.15,2013-09-17 09:20:00,
2013-09-17 05:26:00,76.1,73.9,29.88,SE,124,0.0,6.0,93,0.00,,,0.01,Wunderground v.1.15,2013-09-17 09:26:00,
2013-09-17 05:32:00,76.2,74.0,29.88,SE,124,0.0,6.0,93,0.00,,,0.01,Wunderground v.1.15,2013-09-17 09:32:00,
2013-09-17 05:38:00,76.0,74.1,29.88,SE,124,0.0,6.0,94,0.00,,,0.01,Wunderground v.1.15,2013-09-17 09:38:00,
2013-09-17 05:44:00,75.9,74.0,29.89,SE,124,0.0,6.0,94,0.00,,,0.01,Wunderground v.1.15,2013-09-17 09:44:00,
2013-09-17 05:50:00,76.0,74.5,29.89,SE,124,0.0,6.0,95,0.00,,,0.01,Wunderground v.1.15,2013-09-17 09:50:00,
2013-09-17 05:56:00,76.1,74.2,29.89,SE,124,0.0,6.0,94,0.00,,,0.01,Wunderground v.1.15,2013-09-17 09:56:00,
2013-09-17 06:02:00,76.1,74.6,29.89,SE,124,0.0,6.0,95,0.00,,,0.01,Wunderground v.1.15,2013-09-17 10:02:00,
2013-09-17 06:08:00,76.2,74.3,29.90,SE,124,0.0,6.0,94,0.00,,,0.01,Wunderground v.1.15,2013-09-17 10:08:00,
2013-09-17 06:14:00,76.2,74.3,29.90,SE,124,0.0,6.0,94,0.00,,,0.01,Wunderground v.1.15,2013-09-17 10:14:00,
2013-09-17 06:20:00,76.2,74.3,29.90,SE,124,0.0,6.0,94,0.00,,,0.01,Wunderground v.1.15,2013-09-17 10:20:00,
2013-09-17 06:26:00,76.3,74.4,29.90,North,353,0.0,6.0,94,0.00,,,0.01,Wunderground v.1.15,2013-09-17 10:26:00,
2013-09-17 06:32:00,76.4,74.5,29.90,NW,324,0.0,6.0,94,0.00,,,0.01,Wunderground v.1.15,2013-09-17 10:32:00,
2013-09-17 06:38:00,76.5,74.6,29.90,NNW,338,0.0,6.0,94,0.00,,,0.01,Wunderground v.1.15,2013-09-17 10:38:00,
2013-09-17 06:44:00,76.6,74.4,29.90,WNW,302,1.0,6.0,93,0.00,,,0.01,Wunderground v.1.15,2013-09-17 10:44:00,
2013-09-17 06:50:00,76.6,74.4,29.90,NW,315,1.0,6.0,93,0.00,,,0.01,Wunderground v.1.15,2013-09-17 10:50:00,
2013-09-17 06:56:00,76.7,74.5,29.90,NW,311,1.0,6.0,93,0.00,,,0.01,Wunderground v.1.15,2013-09-17 10:56:00,
2013-09-17 07:02:00,76.8,74.6,29.90,NW,321,1.0,6.0,93,0.00,,,0.01,Wunderground v.1.15,2013-09-17 11:02:00,
2013-09-17 07:08:00,76.9,74.7,29.90,NNW,332,1.0,6.0,93,0.00,,,0.01,Wunderground v.1.15,2013-09-17 11:08:00,
2013-09-17 07:14:00,76.9,75.0,29.90,NNW,340,1.0,6.0,94,0.00,,,0.01,Wunderground v.1.15,2013-09-17 11:14:00,
2013-09-17 07:20:00,77.0,75.5,29.91,NNW,328,1.0,6.0,95,0.00,,,0.01,Wunderground v.1.15,2013-09-17 11:20:00,
2013-09-17 07:26:00,77.2,75.7,29.91,NNW,329,3.0,6.0,95,0.00,,,0.01,Wunderground v.1.15,2013-09-17 11:26:00,
2013-09-17 07:32:00,77.3,75.8,29.91,NW,321,2.0,6.0,95,0.00,,,0.01,Wunderground v.1.15,2013-09-17 11:32:00,
2013-09-17 07:38:00,77.4,75.9,29.91,NNW,330,2.0,6.0,95,0.00,,,0.01,Wunderground v.1.15,2013-09-17 11:38:00,
2013-09-17 07:44:00,77.5,76.0,29.91,NNW,335,1.0,6.0,95,0.00,,,0.01,Wunderground v.1.15,2013-09-17 11:44:00,
2013-09-17 07:50:00,77.5,76.0,29.92,NE,41,1.0,1.0,95,0.00,,,0.01,Wunderground v.1.15,2013-09-17 11:50:00,
2013-09-17 07:56:00,77.6,76.1,29.92,NNW,327,1.0,6.0,95,0.00,,,0.01,Wunderground v.1.15,2013-09-17 11:56:00,
2013-09-17 08:02:00,77.7,76.2,29.92,NNW,341,1.0,6.0,95,0.00,,,0.01,Wunderground v.1.15,2013-09-17 12:02:00,
2013-09-17 08:08:00,77.8,76.3,29.92,NNW,341,0.0,6.0,95,0.00,,,0.01,Wunderground v.1.15,2013-09-17 12:08:00,
2013-09-17 08:14:00,77.9,76.4,29.92,NNW,346,1.0,6.0,95,0.00,,,0.01,Wunderground v.1.15,2013-09-17 12:14:00,
2013-09-17 08:20:00,77.9,76.4,29.92,NNE,23,1.0,1.0,95,0.00,,,0.01,Wunderground v.1.15,2013-09-17 12:20:00,
2013-09-17 08:26:00,78.0,76.5,29.93,NW,318,1.0,6.0,95,0.00,,,0.01,Wunderground v.1.15,2013-09-17 12:26:00,
2013-09-17 08:32:00,78.1,76.6,29.93,NNE,27,0.0,6.0,95,0.00,,,0.01,Wunderground v.1.15,2013-09-17 12:32:00,
2013-09-17 08:38:00,78.1,76.2,29.92,ENE,66,0.0,6.0,94,0.00,,,0.01,Wunderground v.1.15,2013-09-17 12:38:00,
2013-09-17 08:44:00,78.2,76.3,29.93,ENE,78,1.0,6.0,94,0.00,,,0.01,Wunderground v.1.15,2013-09-17 12:44:00,
2013-09-17 08:50:00,78.1,76.2,29.93,ESE,108,1.0,1.0,94,0.00,,,0.01,Wunderground v.1.15,2013-09-17 12:50:00,
2013-09-17 08:56:00,78.0,76.1,29.94,NNE,33,1.0,6.0,94,0.00,,,0.01,Wunderground v.1.15,2013-09-17 12:56:00,
2013-09-17 09:02:00,77.9,76.0,29.94,NNE,33,0.0,6.0,94,0.00,,,0.01,Wunderground v.1.15,2013-09-17 13:02:00,
2013-09-17 09:08:00,78.0,75.8,29.94,NNE,33,0.0,6.0,93,0.00,,,0.01,Wunderground v.1.15,2013-09-17 13:08:00,
2013-09-17 09:14:00,78.0,75.2,29.94,NNE,33,0.0,6.0,91,0.00,,,0.01,Wunderground v.1.15,2013-09-17 13:14:00,
2013-09-17 09:20:00,77.9,74.4,29.95,ESE,107,2.0,7.0,89,0.00,,,0.02,Wunderground v.1.15,2013-09-17 13:20:00,
2013-09-17 09:26:00,76.3,73.1,29.96,ENE,67,6.0,9.0,90,3.15,,,0.20,Wunderground v.1.15,2013-09-17 13:26:00,
2013-09-17 09:32:00,74.2,72.0,29.96,ENE,77,7.0,8.0,93,3.37,,,0.53,Wunderground v.1.15,2013-09-17 13:32:00,
2013-09-17 09:38:00,73.5,72.0,29.96,NE,37,4.0,8.0,95,0.38,,,0.66,Wunderground v.1.15,2013-09-17 13:38:00,
2013-09-17 09:44:00,73.4,72.2,29.95,NNW,334,2.0,6.0,96,0.08,,,0.66,Wunderground v.1.15,2013-09-17 13:44:00,
2013-09-17 09:50:00,73.5,72.6,29.96,NE,40,2.0,2.0,97,0.06,,,0.67,Wunderground v.1.15,2013-09-17 13:50:00,
2013-09-17 09:56:00,73.5,72.6,29.96,NNW,339,0.0,6.0,97,0.22,,,0.69,Wunderground v.1.15,2013-09-17 13:56:00,
2013-09-17 10:02:00,73.6,72.4,29.95,ENE,60,1.0,6.0,96,0.07,,,0.69,Wunderground v.1.15,2013-09-17 14:02:00,
2013-09-17 10:08:00,74.0,72.8,29.95,ENE,64,2.0,6.0,96,0.04,,,0.69,Wunderground v.1.15,2013-09-17 14:08:00,
2013-09-17 10:14:00,74.2,73.0,29.95,NE,47,1.0,6.0,96,0.00,,,0.69,Wunderground v.1.15,2013-09-17 14:14:00,
2013-09-17 10:20:00,74.5,73.3,29.96,ENE,67,1.0,1.0,96,0.00,,,0.69,Wunderground v.1.15,2013-09-17 14:20:00,
2013-09-17 10:26:00,74.9,73.7,29.96,ENE,67,0.0,6.0,96,0.00,,,0.69,Wunderground v.1.15,2013-09-17 14:26:00,
2013-09-17 10:32:00,75.6,74.4,29.95,ENE,67,0.0,6.0,96,0.00,,,0.69,Wunderground v.1.15,2013-09-17 14:32:00,
2013-09-17 10:38:00,75.9,74.4,29.95,East,91,0.0,6.0,95,0.00,,,0.69,Wunderground v.1.15,2013-09-17 14:38:00,
2013-09-17 10:44:00,76.4,74.9,29.95,East,90,0.0,6.0,95,0.00,,,0.69,Wunderground v.1.15,2013-09-17 14:44:00,
2013-09-17 10:50:00,76.7,74.5,29.96,North,7,0.0,6.0,93,0.00,,,0.69,Wunderground v.1.15,2013-09-17 14:50:00,
2013-09-17 10:56:00,77.2,75.0,29.96,NE,46,0.0,6.0,93,0.00,,,0.69,Wunderground v.1.15,2013-09-17 14:56:00,
2013-09-17 11:02:00,77.9,75.7,29.96,ESE,104,0.0,6.0,93,0.00,,,0.69,Wunderground v.1.15,2013-09-17 15:02:00,
2013-09-17 11:08:00,78.4,75.9,29.96,ESE,109,1.0,6.0,92,0.00,,,0.69,Wunderground v.1.15,2013-09-17 15:08:00,
2013-09-17 11:14:00,78.9,75.7,29.96,ESE,115,1.0,6.0,90,0.00,,,0.69,Wunderground v.1.15,2013-09-17 15:14:00,
2013-09-17 11:20:00,79.9,76.4,29.96,ESE,112,1.0,1.0,89,0.00,,,0.69,Wunderground v.1.15,2013-09-17 15:20:00,
2013-09-17 11:26:00,80.4,76.9,29.96,East,84,1.0,6.0,89,0.00,,,0.69,Wunderground v.1.15,2013-09-17 15:26:00,
2013-09-17 11:32:00,80.8,76.9,29.96,ENE,64,1.0,6.0,88,0.00,,,0.69,Wunderground v.1.15,2013-09-17 15:32:00,
2013-09-17 11:38:00,81.1,77.5,29.96,East,82,1.0,6.0,89,0.00,,,0.69,Wunderground v.1.15,2013-09-17 15:38:00,
2013-09-17 11:44:00,81.5,77.3,29.97,ESE,121,1.0,6.0,87,0.00,,,0.69,Wunderground v.1.15,2013-09-17 15:44:00,
2013-09-17 11:50:00,81.9,76.9,29.97,SE,127,1.0,6.0,85,0.00,,,0.69,Wunderground v.1.15,2013-09-17 15:50:00,
2013-09-17 11:56:00,82.3,76.3,29.96,ESE,108,2.0,6.0,82,0.00,,,0.69,Wunderground v.1.15,2013-09-17 15:56:00,
2013-09-17 12:02:00,82.7,76.3,29.96,NE,38,2.0,6.0,81,0.00,,,0.69,Wunderground v.1.15,2013-09-17 16:02:00,
2013-09-17 12:08:00,83.4,77.0,29.96,ENE,72,2.0,6.0,81,0.00,,,0.69,Wunderground v.1.15,2013-09-17 16:08:00,
2013-09-17 12:14:00,84.1,76.9,29.96,ENE,73,3.0,6.0,79,0.00,,,0.69,Wunderground v.1.15,2013-09-17 16:14:00,
2013-09-17 12:20:00,84.2,77.0,29.96,NE,44,3.0,6.0,79,0.00,,,0.69,Wunderground v.1.15,2013-09-17 16:20:00,
2013-09-17 12:26:00,85.1,77.5,29.96,NE,49,2.0,6.0,78,0.00,,,0.69,Wunderground v.1.15,2013-09-17 16:26:00,
2013-09-17 12:32:00,85.4,77.0,29.96,NNW,346,3.0,6.0,76,0.00,,,0.69,Wunderground v.1.15,2013-09-17 16:32:00,
2013-09-17 12:38:00,85.5,77.1,29.95,NNW,329,3.0,6.0,76,0.00,,,0.69,Wunderground v.1.15,2013-09-17 16:38:00,
2013-09-17 12:44:00,85.4,77.4,29.95,NE,52,3.0,6.0,77,0.00,,,0.69,Wunderground v.1.15,2013-09-17 16:44:00,
2013-09-17 12:50:00,85.0,76.2,29.93,NNW,330,3.0,7.0,75,0.00,,,0.69,Wunderground v.1.15,2013-09-17 16:50:00,
2013-09-17 12:56:00,84.8,77.2,29.94,NE,38,4.0,7.0,78,0.00,,,0.69,Wunderground v.1.15,2013-09-17 16:56:00,
2013-09-17 13:02:00,84.6,77.0,29.94,NW,309,3.0,6.0,78,0.00,,,0.69,Wunderground v.1.15,2013-09-17 17:02:00,
2013-09-17 13:08:00,84.3,77.1,29.94,North,11,2.0,6.0,79,0.00,,,0.69,Wunderground v.1.15,2013-09-17 17:08:00,
2013-09-17 13:14:00,83.8,77.0,29.94,NW,318,2.0,6.0,80,0.00,,,0.69,Wunderground v.1.15,2013-09-17 17:14:00,
2013-09-17 13:20:00,82.9,76.5,29.94,NNW,347,3.0,6.0,81,0.00,,,0.69,Wunderground v.1.15,2013-09-17 17:20:00,
2013-09-17 13:26:00,82.4,76.0,29.94,North,359,3.0,6.0,81,0.00,,,0.69,Wunderground v.1.15,2013-09-17 17:26:00,
2013-09-17 13:32:00,82.0,76.0,29.93,North,11,4.0,4.0,82,0.00,,,0.69,Wunderground v.1.15,2013-09-17 17:32:00,
2013-09-17 13:38:00,81.7,76.4,29.93,NNW,346,3.0,6.0,84,1.91,,,0.78,Wunderground v.1.15,2013-09-17 17:38:00,
2013-09-17 13:44:00,80.5,76.3,29.93,ENE,60,1.0,6.0,87,0.43,,,0.91,Wunderground v.1.15,2013-09-17 17:44:00,
2013-09-17 13:50:00,79.7,76.2,29.94,East,80,1.0,1.0,89,0.10,,,0.92,Wunderground v.1.15,2013-09-17 17:50:00,
2013-09-17 13:56:00,79.4,76.5,29.93,East,92,0.0,6.0,91,0.10,,,0.93,Wunderground v.1.15,2013-09-17 17:56:00,
2013-09-17 14:02:00,79.2,76.3,29.93,SE,145,0.0,6.0,91,0.05,,,0.93,Wunderground v.1.15,2013-09-17 18:02:00,
2013-09-17 14:08:00,78.8,76.6,29.93,SSW,211,1.0,6.0,93,0.00,,,0.93,Wunderground v.1.15,2013-09-17 18:08:00,
2013-09-17 14:14:00,78.6,76.4,29.92,SSE,154,0.0,6.0,93,0.00,,,0.93,Wunderground v.1.15,2013-09-17 18:14:00,
2013-09-17 14:20:00,78.6,76.1,29.92,NE,51,0.0,6.0,92,0.00,,,0.93,Wunderground v.1.15,2013-09-17 18:20:00,
2013-09-17 14:26:00,78.7,76.5,29.92,ESE,103,0.0,6.0,93,0.00,,,0.93,Wunderground v.1.15,2013-09-17 18:26:00,
2013-09-17 14:32:00,78.7,76.5,29.92,East,85,0.0,6.0,93,0.00,,,0.93,Wunderground v.1.15,2013-09-17 18:32:00,
2013-09-17 14:38:00,78.7,76.2,29.92,East,95,1.0,6.0,92,0.00,,,0.94,Wunderground v.1.15,2013-09-17 18:38:00,
2013-09-17 14:44:00,78.6,76.4,29.92,ENE,76,1.0,6.0,93,0.17,,,0.95,Wunderground v.1.15,2013-09-17 18:44:00,
2013-09-17 14:50:00,78.5,76.0,29.92,ENE,72,1.0,1.0,92,0.20,,,0.98,Wunderground v.1.15,2013-09-17 18:50:00,
2013-09-17 14:56:00,78.3,76.1,29.91,NNE,27,1.0,6.0,93,0.24,,,1.00,Wunderground v.1.15,2013-09-17 18:56:00,
2013-09-17 15:02:00,78.1,75.9,29.91,NE,39,1.0,6.0,93,0.17,,,1.02,Wunderground v.1.15,2013-09-17 19:02:00,
2013-09-17 15:08:00,78.0,76.1,29.91,NE,43,1.0,6.0,94,0.17,,,1.03,Wunderground v.1.15,2013-09-17 19:08:00,
2013-09-17 15:14:00,77.9,76.0,29.91,ENE,59,1.0,6.0,94,0.16,,,1.05,Wunderground v.1.15,2013-09-17 19:14:00,
2013-09-17 15:20:00,77.7,75.8,29.91,NE,49,1.0,1.0,94,0.16,,,1.07,Wunderground v.1.15,2013-09-17 19:20:00,
2013-09-17 15:26:00,77.7,76.2,29.91,NW,322,1.0,6.0,95,0.19,,,1.09,Wunderground v.1.15,2013-09-17 19:26:00,
2013-09-17 15:32:00,77.7,76.2,29.91,NNE,30,1.0,6.0,95,0.18,,,1.11,Wunderground v.1.15,2013-09-17 19:32:00,
2013-09-17 15:38:00,77.7,76.2,29.91,NNE,24,1.0,6.0,95,0.16,,,1.12,Wunderground v.1.15,2013-09-17 19:38:00,
2013-09-17 15:44:00,77.7,76.2,29.90,NNE,30,1.0,6.0,95,0.11,,,1.13,Wunderground v.1.15,2013-09-17 19:44:00,
2013-09-17 15:50:00,77.8,76.3,29.90,NE,56,1.0,1.0,95,0.06,,,1.13,Wunderground v.1.15,2013-09-17 19:50:00,
2013-09-17 15:56:00,78.0,76.5,29.90,NE,45,1.0,6.0,95,0.04,,,1.13,Wunderground v.1.15,2013-09-17 19:56:00,
2013-09-17 16:02:00,78.2,76.6,29.90,NE,51,1.0,6.0,95,0.00,,,1.13,Wunderground v.1.15,2013-09-17 20:02:00,
2013-09-17 16:08:00,78.3,76.7,29.90,ENE,72,1.0,6.0,95,0.00,,,1.13,Wunderground v.1.15,2013-09-17 20:08:00,
2013-09-17 16:14:00,78.4,76.5,29.89,NNE,27,1.0,6.0,94,0.00,,,1.13,Wunderground v.1.15,2013-09-17 20:14:00,
2013-09-17 16:20:00,78.5,76.9,29.89,North,354,2.0,2.0,95,0.00,,,1.14,Wunderground v.1.15,2013-09-17 20:20:00,
2013-09-17 16:26:00,78.5,76.6,29.89,NE,39,3.0,6.0,94,0.00,,,1.14,Wunderground v.1.15,2013-09-17 20:26:00,
2013-09-17 16:32:00,78.5,76.3,29.89,NE,51,2.0,6.0,93,0.00,,,1.14,Wunderground v.1.15,2013-09-17 20:32:00,
2013-09-17 16:38:00,78.4,76.2,29.88,East,92,1.0,6.0,93,0.00,,,1.14,Wunderground v.1.15,2013-09-17 20:38:00,
2013-09-17 16:44:00,78.4,76.2,29.88,NE,53,2.0,6.0,93,0.00,,,1.15,Wunderground v.1.15,2013-09-17 20:44:00,
2013-09-17 16:50:00,78.4,76.5,29.88,NE,34,3.0,3.0,94,0.00,,,1.15,Wunderground v.1.15,2013-09-17 20:50:00,
2013-09-17 16:56:00,78.4,76.2,29.88,NE,37,3.0,6.0,93,0.00,,,1.15,Wunderground v.1.15,2013-09-17 20:56:00,
2013-09-17 17:02:00,78.5,76.6,29.88,ENE,65,2.0,6.0,94,0.00,,,1.15,Wunderground v.1.15,2013-09-17 21:02:00,
2013-09-17 17:08:00,78.5,76.0,29.88,NE,48,3.0,6.0,92,0.00,,,1.15,Wunderground v.1.15,2013-09-17 21:08:00,
2013-09-17 17:14:00,78.4,75.6,29.88,ENE,63,4.0,7.0,91,0.00,,,1.15,Wunderground v.1.15,2013-09-17 21:14:00,
2013-09-17 17:20:00,78.4,75.6,29.87,North,353,4.0,6.0,91,0.00,,,1.15,Wunderground v.1.15,2013-09-17 21:20:00,
2013-09-17 17:26:00,78.3,75.8,29.87,NE,56,4.0,6.0,92,0.00,,,1.15,Wunderground v.1.15,2013-09-17 21:26:00,
2013-09-17 17:32:00,78.2,75.4,29.87,NE,43,3.0,5.0,91,0.00,,,1.15,Wunderground v.1.15,2013-09-17 21:32:00,
2013-09-17 17:38:00,78.1,75.3,29.87,NE,37,4.0,6.0,91,0.00,,,1.15,Wunderground v.1.15,2013-09-17 21:38:00,
2013-09-17 17:44:00,78.0,75.2,29.87,ENE,62,5.0,8.0,91,0.00,,,1.15,Wunderground v.1.15,2013-09-17 21:44:00,
2013-09-17 17:50:00,77.9,75.1,29.87,ENE,57,4.0,7.0,91,0.00,,,1.15,Wunderground v.1.15,2013-09-17 21:50:00,
2013-09-17 17:56:00,77.8,75.0,29.87,ENE,70,4.0,7.0,91,0.00,,,1.15,Wunderground v.1.15,2013-09-17 21:56:00,
2013-09-17 18:02:00,77.8,75.0,29.87,ENE,60,3.0,6.0,91,0.00,,,1.15,Wunderground v.1.15,2013-09-17 22:02:00,
2013-09-17 18:08:00,77.9,75.1,29.87,ENE,59,3.0,6.0,91,0.00,,,1.15,Wunderground v.1.15,2013-09-17 22:08:00,
2013-09-17 18:14:00,77.9,75.4,29.87,ENE,60,3.0,6.0,92,0.00,,,1.15,Wunderground v.1.15,2013-09-17 22:14:00,
2013-09-17 18:20:00,77.9,75.4,29.86,NE,49,3.0,6.0,92,0.00,,,1.15,Wunderground v.1.15,2013-09-17 22:20:00,
2013-09-17 18:26:00,78.0,75.5,29.86,NNE,30,3.0,6.0,92,0.00,,,1.15,Wunderground v.1.15,2013-09-17 22:26:00,
2013-09-17 18:32:00,78.2,75.7,29.86,East,96,3.0,6.0,92,0.00,,,1.15,Wunderground v.1.15,2013-09-17 22:32:00,
2013-09-17 18:38:00,78.4,75.6,29.86,NE,53,4.0,6.0,91,0.00,,,1.15,Wunderground v.1.15,2013-09-17 22:38:00,
2013-09-17 18:44:00,78.5,76.0,29.86,ENE,60,3.0,6.0,92,0.00,,,1.15,Wunderground v.1.15,2013-09-17 22:44:00,
2013-09-17 18:50:00,78.6,75.8,29.86,NE,56,4.0,6.0,91,0.00,,,1.15,Wunderground v.1.15,2013-09-17 22:50:00,
2013-09-17 18:56:00,78.5,75.7,29.86,ENE,72,4.0,6.0,91,0.00,,,1.15,Wunderground v.1.15,2013-09-17 22:56:00,
2013-09-17 19:02:00,78.4,75.2,29.87,East,79,3.0,6.0,90,0.00,,,1.15,Wunderground v.1.15,2013-09-17 23:02:00,
2013-09-17 19:08:00,78.4,75.2,29.87,NE,44,3.0,6.0,90,0.00,,,1.15,Wunderground v.1.15,2013-09-17 23:08:00,
2013-09-17 19:14:00,78.2,75.0,29.87,ENE,60,3.0,6.0,90,0.00,,,1.15,Wunderground v.1.15,2013-09-17 23:14:00,
2013-09-17 19:20:00,78.1,74.9,29.87,ESE,115,2.0,2.0,90,0.00,,,1.15,Wunderground v.1.15,2013-09-17 23:20:00,
2013-09-17 19:26:00,78.0,75.2,29.87,ESE,105,1.0,6.0,91,0.00,,,1.15,Wunderground v.1.15,2013-09-17 23:26:00,
2013-09-17 19:32:00,77.9,75.1,29.87,ENE,75,1.0,6.0,91,0.00,,,1.15,Wunderground v.1.15,2013-09-17 23:32:00,
2013-09-17 19:38:00,77.8,75.0,29.88,East,97,0.0,6.0,91,0.00,,,1.15,Wunderground v.1.15,2013-09-17 23:38:00,
2013-09-17 19:44:00,77.7,75.2,29.88,SE,136,0.0,6.0,92,0.00,,,1.15,Wunderground v.1.15,2013-09-17 23:44:00,
2013-09-17 19:50:00,77.6,75.1,29.88,SE,129,0.0,6.0,92,0.00,,,1.15,Wunderground v.1.15,2013-09-17 23:50:00,
2013-09-17 19:56:00,77.5,75.0,29.88,East,100,0.0,6.0,92,0.00,,,1.15,Wunderground v.1.15,2013-09-17 23:56:00,
2013-09-17 20:02:00,77.5,75.3,29.89,ESE,119,0.0,6.0,93,0.00,,,1.15,Wunderground v.1.15,2013-09-18 00:02:00,
2013-09-17 20:08:00,77.7,75.2,29.89,ESE,104,0.0,6.0,92,0.00,,,1.15,Wunderground v.1.15,2013-09-18 00:08:00,
2013-09-17 20:14:00,77.6,75.4,29.89,ESE,104,0.0,6.0,93,0.00,,,1.15,Wunderground v.1.15,2013-09-18 00:14:00,
2013-09-17 20:20:00,77.5,75.3,29.89,NE,53,0.0,6.0,93,0.00,,,1.15,Wunderground v.1.15,2013-09-18 00:20:00,
2013-09-17 20:26:00,77.6,75.4,29.89,NE,56,0.0,6.0,93,0.00,,,1.15,Wunderground v.1.15,2013-09-18 00:26:00,
2013-09-17 20:32:00,77.6,75.4,29.90,East,80,0.0,6.0,93,0.00,,,1.15,Wunderground v.1.15,2013-09-18 00:32:00,
2013-09-17 20:38:00,77.7,75.2,29.90,East,97,0.0,6.0,92,0.00,,,1.15,Wunderground v.1.15,2013-09-18 00:38:00,
2013-09-17 20:44:00,77.8,75.3,29.90,NE,49,0.0,6.0,92,0.00,,,1.15,Wunderground v.1.15,2013-09-18 00:44:00,
2013-09-17 20:50:00,77.8,75.3,29.90,NE,49,0.0,6.0,92,0.00,,,1.15,Wunderground v.1.15,2013-09-18 00:50:00,
2013-09-17 20:56:00,77.7,75.2,29.90,NE,49,0.0,6.0,92,0.00,,,1.15,Wunderground v.1.15,2013-09-18 00:56:00,
2013-09-17 21:02:00,77.6,75.1,29.90,NE,49,0.0,6.0,92,0.00,,,1.15,Wunderground v.1.15,2013-09-18 01:02:00,
2013-09-17 21:08:00,77.4,74.9,29.90,NE,49,0.0,6.0,92,0.00,,,1.15,Wunderground v.1.15,2013-09-18 01:08:00,
2013-09-17 21:14:00,77.1,74.9,29.91,NE,49,0.0,6.0,93,0.00,,,1.15,Wunderground v.1.15,2013-09-18 01:14:00,
2013-09-17 21:20:00,76.9,75.0,29.91,NE,49,0.0,6.0,94,0.00,,,1.15,Wunderground v.1.15,2013-09-18 01:20:00,
2013-09-17 21:26:00,76.9,75.0,29.90,NE,49,0.0,6.0,94,0.00,,,1.15,Wunderground v.1.15,2013-09-18 01:26:00,
2013-09-17 21:32:00,76.8,74.9,29.91,NE,49,0.0,6.0,94,0.00,,,1.15,Wunderground v.1.15,2013-09-18 01:32:00,
2013-09-17 21:38:00,77.0,75.1,29.91,NE,49,0.0,6.0,94,0.00,,,1.15,Wunderground v.1.15,2013-09-18 01:38:00,
2013-09-17 21:44:00,77.2,75.3,29.91,NE,49,0.0,6.0,94,0.00,,,1.15,Wunderground v.1.15,2013-09-18 01:44:00,
2013-09-17 21:50:00,77.3,75.4,29.91,NE,49,0.0,6.0,94,0.00,,,1.15,Wunderground v.1.15,2013-09-18 01:50:00,
2013-09-17 21:56:00,77.5,75.6,29.91,NE,49,0.0,6.0,94,0.00,,,1.15,Wunderground v.1.15,2013-09-18 01:56:00,
2013-09-17 22:02:00,77.6,75.7,29.91,NE,48,0.0,6.0,94,0.00,,,1.15,Wunderground v.1.15,2013-09-18 02:02:00,
2013-09-17 22:08:00,77.5,75.6,29.91,NE,49,0.0,6.0,94,0.00,,,1.15,Wunderground v.1.15,2013-09-18 02:08:00,
2013-09-17 22:14:00,77.4,75.5,29.92,NE,49,0.0,6.0,94,0.00,,,1.15,Wunderground v.1.15,2013-09-18 02:14:00,
2013-09-17 22:20:00,77.4,75.5,29.92,NE,49,0.0,6.0,94,0.00,,,1.15,Wunderground v.1.15,2013-09-18 02:20:00,
2013-09-17 22:26:00,77.3,75.4,29.91,NE,49,0.0,6.0,94,0.00,,,1.15,Wunderground v.1.15,2013-09-18 02:26:00,
2013-09-17 22:32:00,77.2,75.3,29.92,NE,49,0.0,6.0,94,0.00,,,1.15,Wunderground v.1.15,2013-09-18 02:32:00,
2013-09-17 22:38:00,77.2,75.7,29.92,NE,49,0.0,6.0,95,0.00,,,1.15,Wunderground v.1.15,2013-09-18 02:38:00,
2013-09-17 22:44:00,77.1,75.6,29.91,NE,49,0.0,6.0,95,0.00,,,1.15,Wunderground v.1.15,2013-09-18 02:44:00,
2013-09-17 22:50:00,77.2,75.7,29.92,NE,49,0.0,6.0,95,0.00,,,1.15,Wunderground v.1.15,2013-09-18 02:50:00,
2013-09-17 22:58:00,77.3,75.8,29.91,NE,49,0.0,6.0,95,0.00,,,1.15,Wunderground v.1.15,2013-09-18 02:58:00,
2013-09-17 23:04:00,77.3,75.8,29.91,NE,49,0.0,6.0,95,0.00,,,1.15,Wunderground v.1.15,2013-09-18 03:04:00,
2013-09-17 23:10:00,77.5,75.6,29.91,NE,49,0.0,6.0,94,0.00,,,1.15,Wunderground v.1.15,2013-09-18 03:10:00,
2013-09-17 23:16:00,78.0,75.8,29.91,ESE,115,0.0,6.0,93,0.00,,,1.15,Wunderground v.1.15,2013-09-18 03:16:00,
2013-09-17 23:22:00,78.2,76.0,29.91,SE,130,0.0,6.0,93,0.00,,,1.15,Wunderground v.1.15,2013-09-18 03:22:00,
2013-09-17 23:28:00,78.3,76.1,29.91,ESE,122,0.0,6.0,93,0.00,,,1.15,Wunderground v.1.15,2013-09-18 03:28:00,
2013-09-17 23:34:00,78.2,76.0,29.91,ESE,122,0.0,6.0,93,0.00,,,1.15,Wunderground v.1.15,2013-09-18 03:34:00,
2013-09-17 23:40:00,78.0,75.8,29.91,ESE,122,0.0,6.0,93,0.00,,,1.15,Wunderground v.1.15,2013-09-18 03:40:00,
2013-09-17 23:46:00,77.8,75.9,29.91,ESE,122,0.0,6.0,94,0.00,,,1.15,Wunderground v.1.15,2013-09-18 03:46:00,
2013-09-17 23:52:00,77.7,75.8,29.91,ESE,122,0.0,6.0,94,0.00,,,1.15,Wunderground v.1.15,2013-09-18 03:52:00,
2013-09-17 23:58:00,77.7,76.2,29.91,ESE,107,0.0,6.0,95,0.00,,,1.15,Wunderground v.1.15,2013-09-18 03:58:00,